Weather History for Kokomo, IN

Change the Weather History Date:

Sunday, November 25, 2012

  Actual Average (KGUS) Record (KGUS)
Temperature  
Mean Temperature 35 °F -  
Max Temperature 44 °F 44 °F 60 °F (2006)
Min Temperature 26 °F 31 °F 15 °F (2005)
Degree Days  
Heating Degree Days 30    
Moisture  
Dew Point 26 °F    
Average Humidity 68    
Maximum Humidity 81    
Minimum Humidity 53    
Precipitation  
Precipitation 0.00 in - - ()
Sea Level Pressure  
Sea Level Pressure 29.94 in    
Wind  
Wind Speed 10 mph (WSW)    
Max Wind Speed 17 mph    
Max Gust Speed 21 mph    
Visibility 10 miles    
Events      
Averages and records for this station are not official NWS values.
T = Trace of Precipitation, MM = Missing Value Source: NWS Daily Summary

Daily Weather History Graph

Daily Weather History Graph

Search for Another Location

Airport:

Trip Planner

Search our weather history database for the weather conditions in past years. The results will help you decide how hot, cold, wet, or windy it might be!

Date:

Astronomy

Nov. 25, 2012 Rise Set
Actual Time 6:42 AM CST 4:19 PM CST
Civil Twilight 6:12 AM CST 4:49 PM CST
Nautical Twilight 5:38 AM CST 5:23 PM CST
Astronomical Twilight 5:06 AM CST 5:56 PM CST
Moon 2:37 PM CST (11/25) 3:55 AM CST (11/25)
Length of Visible Light 10h 37m
Length of Day
9h 37m
Waxing Gibbous, 93% of the Moon is Illuminated
Nov 25
Waxing Gibbous
Nov 28
Full
Dec 6
Last Quarter
Dec 13
New
Dec 19
First Quarter

Hourly Weather History & Observations

Time (CST) Temp. Windchill Dew Point Humidity Pressure Visibility Wind Dir Wind Speed Gust Speed Precip Events Conditions
12:15 AM 26.6 °F 18.2 °F 21.2 °F 80% 30.05 in 10.0 mi SSW 8.1 mph - N/A   Partly Cloudy
12:35 AM 26.6 °F 17.5 °F 21.2 °F 80% 30.06 in 10.0 mi SSW 9.2 mph - N/A   Scattered Clouds
12:55 AM 26.6 °F 19.1 °F 21.2 °F 80% 30.04 in 10.0 mi SSW 6.9 mph - N/A   Mostly Cloudy
1:15 AM 26.6 °F 19.1 °F 21.2 °F 80% 30.03 in 10.0 mi SSW 6.9 mph - N/A   Mostly Cloudy
1:35 AM 28.4 °F 20.4 °F 21.2 °F 74% 30.03 in 10.0 mi SSW 8.1 mph - N/A   Mostly Cloudy
1:55 AM 28.4 °F 19.7 °F 21.2 °F 74% 30.01 in 10.0 mi South 9.2 mph - N/A   Partly Cloudy
2:15 AM 28.4 °F 19.1 °F 21.2 °F 74% 30.00 in 10.0 mi South 10.4 mph - N/A   Partly Cloudy
2:35 AM 28.4 °F 18.5 °F 21.2 °F 74% 29.99 in 10.0 mi South 11.5 mph - N/A   Clear
2:55 AM 28.4 °F 19.1 °F 23.0 °F 80% 29.99 in 10.0 mi South 10.4 mph - N/A   Partly Cloudy
3:15 AM 28.4 °F 19.7 °F 21.2 °F 74% 29.97 in 10.0 mi South 9.2 mph - N/A   Clear
3:35 AM 28.4 °F 19.1 °F 23.0 °F 80% 29.96 in 10.0 mi South 10.4 mph - N/A   Clear
3:55 AM 28.4 °F 19.1 °F 21.2 °F 74% 29.95 in 10.0 mi South 10.4 mph - N/A   Scattered Clouds
4:15 AM 28.4 °F 18.5 °F 23.0 °F 80% 29.94 in 10.0 mi South 11.5 mph - N/A   Partly Cloudy
4:35 AM 28.4 °F 17.5 °F 23.0 °F 80% 29.93 in 10.0 mi South 13.8 mph - N/A   Mostly Cloudy
4:55 AM 28.4 °F 17.5 °F 23.0 °F 80% 29.92 in 10.0 mi SSW 13.8 mph - N/A   Partly Cloudy
5:15 AM 30.2 °F 19.8 °F 21.2 °F 69% 29.91 in 10.0 mi SSW 13.8 mph 18.4 mph N/A   Mostly Cloudy
5:35 AM 30.2 °F 20.2 °F 23.0 °F 75% 29.91 in 10.0 mi SSW 12.7 mph 18.4 mph N/A   Overcast
5:55 AM 30.2 °F 21.3 °F 23.0 °F 75% 29.91 in 10.0 mi SSW 10.4 mph - N/A   Overcast
6:15 AM 30.2 °F 20.8 °F 21.2 °F 69% 29.90 in 10.0 mi SW 11.5 mph - N/A   Mostly Cloudy
6:35 AM 32.0 °F 21.6 °F 23.0 °F 69% 29.91 in 10.0 mi SW 15.0 mph 20.7 mph N/A   Scattered Clouds
6:55 AM 30.2 °F 20.2 °F 21.2 °F 69% 29.90 in 10.0 mi SW 12.7 mph - N/A   Partly Cloudy
7:15 AM 32.0 °F 22.5 °F 21.2 °F 64% 29.91 in 10.0 mi SW 12.7 mph - N/A   Clear
7:35 AM 32.0 °F 22.1 °F 24.8 °F 75% 29.90 in 10.0 mi SW 13.8 mph - N/A   Clear
7:55 AM 32.0 °F 23.0 °F 24.8 °F 75% 29.91 in 10.0 mi SW 11.5 mph - N/A   Clear
8:15 AM 33.8 °F 24.8 °F 23.0 °F 65% 29.91 in 10.0 mi SW 12.7 mph - N/A   Clear
8:35 AM 35.6 °F 27.1 °F 24.8 °F 65% 29.91 in 10.0 mi SW 12.7 mph - N/A   Clear
8:55 AM 35.6 °F 26.2 °F 24.8 °F 65% 29.90 in 10.0 mi WSW 15.0 mph 19.6 mph N/A   Clear
9:15 AM 37.4 °F 28.9 °F 24.8 °F 60% 29.91 in 10.0 mi WSW 13.8 mph - N/A   Clear
9:35 AM 37.4 °F 28.5 °F 26.6 °F 65% 29.91 in 10.0 mi WSW 15.0 mph - N/A   Clear
9:55 AM 39.2 °F 30.5 °F 26.6 °F 61% 29.90 in 10.0 mi WSW 16.1 mph - N/A   Clear
10:15 AM 39.2 °F 30.2 °F 26.6 °F 61% 29.90 in 10.0 mi WSW 17.3 mph 20.7 mph N/A   Clear
10:35 AM 41.0 °F 32.8 °F 26.6 °F 57% 29.90 in 10.0 mi West 16.1 mph 19.6 mph N/A   Clear
10:55 AM 42.8 °F 34.8 °F 26.6 °F 53% 29.89 in 10.0 mi West 17.3 mph - N/A   Clear
11:15 AM 42.8 °F 35.4 °F 26.6 °F 53% 29.88 in 10.0 mi West 15.0 mph - N/A   Clear
11:35 AM 42.8 °F 36.2 °F 28.4 °F 57% 29.88 in 10.0 mi West 12.7 mph 19.6 mph N/A   Clear
11:55 AM 42.8 °F 36.2 °F 26.6 °F 53% 29.87 in 10.0 mi West 12.7 mph - N/A   Clear
12:15 PM 42.8 °F 35.4 °F 28.4 °F 57% 29.87 in 10.0 mi West 15.0 mph 19.6 mph N/A   Clear
12:35 PM 44.6 °F 38.1 °F 28.4 °F 53% 29.87 in 10.0 mi West 13.8 mph - N/A   Clear
12:55 PM 44.6 °F 37.8 °F 28.4 °F 53% 29.87 in 10.0 mi West 15.0 mph - N/A   Clear
1:15 PM 44.6 °F 38.8 °F 28.4 °F 53% 29.87 in 10.0 mi West 11.5 mph - N/A   Clear
1:35 PM 44.6 °F 38.1 °F 30.2 °F 57% 29.88 in 10.0 mi West 13.8 mph - N/A   Clear
1:55 PM 44.6 °F 37.8 °F 28.4 °F 53% 29.88 in 10.0 mi West 15.0 mph - N/A   Clear
2:15 PM 44.6 °F 37.8 °F 30.2 °F 57% 29.88 in 10.0 mi West 15.0 mph - N/A   Clear
2:35 PM 44.6 °F 38.1 °F 28.4 °F 53% 29.89 in 10.0 mi WSW 13.8 mph - N/A   Clear
2:55 PM 44.6 °F 38.4 °F 28.4 °F 53% 29.89 in 10.0 mi West 12.7 mph 19.6 mph N/A   Clear
3:15 PM 44.6 °F 38.1 °F 28.4 °F 53% 29.90 in 10.0 mi WSW 13.8 mph - N/A   Clear
3:35 PM 42.8 °F 37.5 °F 28.4 °F 57% 29.90 in 10.0 mi West 9.2 mph - N/A   Clear
3:55 PM 42.8 °F 37.5 °F 30.2 °F 61% 29.90 in 10.0 mi West 9.2 mph - N/A   Clear
4:15 PM 41.0 °F 35.8 °F 30.2 °F 65% 29.90 in 10.0 mi West 8.1 mph - N/A   Clear
4:35 PM 39.2 °F 33.0 °F 28.4 °F 65% 29.91 in 10.0 mi West 9.2 mph - N/A   Clear
4:55 PM 37.4 °F 32.8 °F 28.4 °F 70% 29.91 in 10.0 mi WSW 5.8 mph - N/A   Clear
5:15 PM 39.2 °F 35.0 °F 28.4 °F 65% 29.92 in 10.0 mi West 5.8 mph - N/A   Clear
5:35 PM 39.2 °F 34.2 °F 28.4 °F 65% 29.93 in 10.0 mi West 6.9 mph - N/A   Clear
5:55 PM 39.2 °F 33.6 °F 28.4 °F 65% 29.94 in 10.0 mi West 8.1 mph - N/A   Clear
6:15 PM 39.2 °F 37.0 °F 30.2 °F 70% 29.95 in 10.0 mi WSW 3.5 mph - N/A   Clear
6:35 PM 39.2 °F - 30.2 °F 70% 29.96 in 10.0 mi Calm Calm - N/A   Clear
6:55 PM 37.4 °F 34.9 °F 30.2 °F 75% 29.96 in 10.0 mi West 3.5 mph - N/A   Clear
7:15 PM 37.4 °F - 28.4 °F 70% 29.96 in 10.0 mi Calm Calm - N/A   Clear
7:35 PM 35.6 °F - 28.4 °F 75% 29.97 in 10.0 mi Calm Calm - N/A   Clear
7:55 PM 35.6 °F 30.7 °F 28.4 °F 75% 29.98 in 10.0 mi West 5.8 mph - N/A   Clear
8:15 PM 35.6 °F 32.8 °F 28.4 °F 75% 29.98 in 10.0 mi West 3.5 mph - N/A   Clear
8:35 PM 35.6 °F 30.7 °F 28.4 °F 75% 29.99 in 10.0 mi WNW 5.8 mph - N/A   Clear
8:55 PM 35.6 °F 30.7 °F 30.2 °F 81% 30.00 in 10.0 mi WNW 5.8 mph - N/A   Clear
9:15 PM 35.6 °F 31.7 °F 30.2 °F 81% 30.01 in 10.0 mi NW 4.6 mph - N/A   Clear
9:35 PM 35.6 °F 31.7 °F 30.2 °F 81% 30.01 in 10.0 mi WNW 4.6 mph - N/A   Clear
9:55 PM 35.6 °F 31.7 °F 28.4 °F 75% 30.02 in 10.0 mi NW 4.6 mph - N/A   Clear
10:15 PM 37.4 °F 33.8 °F 28.4 °F 70% 30.01 in 10.0 mi NW 4.6 mph - N/A   Mostly Cloudy
10:35 PM 37.4 °F 34.9 °F 28.4 °F 70% 30.02 in 10.0 mi NNW 3.5 mph - N/A   Overcast
10:55 PM 37.4 °F - 28.4 °F 70% 30.02 in 10.0 mi Calm Calm - N/A   Mostly Cloudy
11:15 PM 35.6 °F - 28.4 °F 75% 30.03 in 10.0 mi Calm Calm - N/A   Mostly Cloudy
11:35 PM 35.6 °F - 28.4 °F 75% 30.03 in 10.0 mi Calm Calm - N/A   Mostly Cloudy
11:55 PM 35.6 °F 30.7 °F 30.2 °F 81% 30.04 in 10.0 mi SW 5.8 mph - N/A   Mostly Cloudy